Starlink 32294

operational
NORAD ID: 61675 Int'l Des: 2024-193 Owner: SPXS Country: US Constellation: starlink
LEOCIRCULAR

Über Starlink 32294

Beschreibung wird geladen...

Live-Position

3D-Globus wird geladen...

Nächste Überflüge

Höhenverlauf

Altitude vs Time

uPlot chart will show altitude changes over time

Zweizeiliger Elementsatz

1 61675U 24193Q 25352.07153731 .00001510 00000-0 63087-4 0 9993
2 61675 53.1605 109.8945 0000068 183.7517 176.3484 15.30187574 64036
Epoch: 18. Dez. 2025 • Age: 16 hours

Aktueller Status

Höhe 481.7 km
Geschwindigkeit 7.63 km/s
Subsatellitenpunkt 52.56°N, 170.36°W
Startdatum 26. Okt. 2024
Alter 1.1 years
Typ internet

Technische Details

Klassifizierung Payload
Masse 730.00 kg
Trockenmasse 700.00 kg
Gesamtmasse 730.00 kg
Länge 0.30 m
Durchmesser 4.10 m
Spannweite 29.00 m
Form Box + pan
Hersteller SPXS
Bus-Typ Starlink V2M
Phasenstatus In Orbit
Besitzer/Staat SPXS/US

Große Konstellationen

Loading constellations...